Minchumina, AK

10:44 AM AKDT on June 22, 2017 (GMT -0800)
Minchumina

Weather History for PAMH - November, 2012

Change the Weather History Date:

Monday, November 19, 2012

  Actual Average Record
Temperature  
Mean Temperature 0 °F -  
Max Temperature 3 °F 9 °F 30 °F (2014)
Min Temperature -2 °F 0 °F -23 °F (2007)
Degree Days  
Heating Degree Days 64    
Moisture  
Dew Point -12 °F    
Average Humidity 54    
Maximum Humidity 60    
Minimum Humidity 51    
Precipitation  
Precipitation 0.00 in - - ()
Sea Level Pressure  
Sea Level Pressure 29.87 in    
Wind  
Wind Speed 5 mph (NNE)    
Max Wind Speed 8 mph    
Max Gust Speed -    
Visibility 10 miles    
Events      
Averages and records for this station are not official NWS values.
T = Trace of Precipitation, MM = Missing Value Source: NWS Daily Summary

Daily Weather History Graph

Daily Weather History Graph

Search for Another Location

Airport or City:

Trip Planner

Search our weather history database for the weather conditions in past years. The results will help you decide how hot, cold, wet, or windy it might be!

Date:

Astronomy

Nov. 19, 2012 Rise Set
Actual Time 9:50 AM AKST 3:58 PM AKST
Civil Twilight 8:48 AM AKST 5:00 PM AKST
Nautical Twilight 7:47 AM AKST 6:01 PM AKST
Astronomical Twilight 6:50 AM AKST 6:57 PM AKST
Moon 1:59 PM AKST (11/19) 11:45 PM AKST (11/19)
Length of Visible Light 8h 11m
Length of Day
6h 07m
Waxing Crescent, 42% of the Moon is Illuminated
Nov 19
Waxing Crescent
Nov 20
First Quarter
Nov 28
Full
Dec 6
Last Quarter
Dec 12
New

Hourly Weather History & Observations

Time (AKST) Temp. Windchill Dew Point Humidity Pressure Visibility Wind Dir Wind Speed Gust Speed Precip Events Conditions
12:16 AM -2.2 °F -14.2 °F -13.0 °F 60% 29.77 in 10.0 mi NE 5.8 mph - N/A   Mostly Cloudy
12:36 AM -2.2 °F -14.2 °F -14.8 °F 55% 29.77 in 10.0 mi NNE 5.8 mph - N/A   Partly Cloudy
12:56 AM -0.4 °F -12.0 °F -13.0 °F 55% 29.77 in 10.0 mi NE 5.8 mph - N/A   Clear
1:16 AM -0.4 °F -10.4 °F -13.0 °F 55% 29.77 in 10.0 mi NE 4.6 mph - N/A   Clear
1:36 AM -0.4 °F -13.4 °F -13.0 °F 55% 29.77 in 10.0 mi NE 6.9 mph - N/A   Clear
1:56 AM -0.4 °F - -13.0 °F 55% 29.78 in 10.0 mi Calm Calm - N/A   Clear
2:16 AM -0.4 °F -12.0 °F -11.2 °F 60% 29.78 in 10.0 mi NE 5.8 mph - N/A   Clear
2:36 AM -0.4 °F -10.4 °F -13.0 °F 55% 29.78 in 10.0 mi NNE 4.6 mph - N/A   Clear
2:56 AM -0.4 °F -8.3 °F -13.0 °F 55% 29.78 in 10.0 mi North 3.5 mph - N/A   Clear
3:16 AM -0.4 °F -12.0 °F -13.0 °F 55% 29.78 in 10.0 mi NNE 5.8 mph - N/A   Clear
3:36 AM -0.4 °F -12.0 °F -13.0 °F 55% 29.78 in 10.0 mi NNE 5.8 mph - N/A   Clear
3:56 AM -0.4 °F -10.4 °F -11.2 °F 60% 29.78 in 10.0 mi NNE 4.6 mph - N/A   Clear
4:16 AM -0.4 °F -12.0 °F -11.2 °F 60% 29.79 in 10.0 mi NE 5.8 mph - N/A   Clear
4:36 AM -0.4 °F -13.4 °F -11.2 °F 60% 29.79 in 10.0 mi NE 6.9 mph - N/A   Clear
4:56 AM -0.4 °F -10.4 °F - N/A% 29.80 in 10.0 mi NNE 4.6 mph - N/A   Clear
5:16 AM 1.4 °F -8.3 °F -11.2 °F 56% 29.81 in 10.0 mi NNE 4.6 mph - N/A   Clear
5:36 AM 1.4 °F -8.3 °F -11.2 °F 56% 29.81 in 10.0 mi NNE 4.6 mph - N/A   Clear
5:56 AM 1.4 °F -9.9 °F -11.2 °F 56% 29.82 in 10.0 mi NNE 5.8 mph - N/A   Clear
6:16 AM 1.4 °F -6.2 °F -11.2 °F 56% 29.83 in 10.0 mi NE 3.5 mph - N/A   Clear
6:36 AM 1.4 °F -8.3 °F -13.0 °F 51% 29.83 in 10.0 mi NE 4.6 mph - N/A   Clear
6:56 AM 1.4 °F -8.3 °F -13.0 °F 51% 29.84 in 10.0 mi NNE 4.6 mph - N/A   Clear
7:16 AM 1.4 °F -8.3 °F -13.0 °F 51% 29.84 in 10.0 mi NNE 4.6 mph - N/A   Clear
7:36 AM 1.4 °F -8.3 °F -13.0 °F 51% 29.84 in 10.0 mi NNE 4.6 mph - N/A   Clear
7:56 AM 1.4 °F - -13.0 °F 51% 29.85 in 10.0 mi Calm Calm - N/A   Clear
8:16 AM 1.4 °F -9.9 °F -13.0 °F 51% 29.85 in 10.0 mi NNE 5.8 mph - N/A   Clear
8:36 AM 1.4 °F - -13.0 °F 51% 29.86 in 10.0 mi Calm Calm - N/A   Clear
8:56 AM 1.4 °F -8.3 °F -13.0 °F 51% 29.86 in 10.0 mi NNE 4.6 mph - N/A   Clear
9:16 AM 1.4 °F -8.3 °F -11.2 °F 56% 29.86 in 10.0 mi NNE 4.6 mph - N/A   Clear
9:36 AM 1.4 °F -8.3 °F -13.0 °F 51% 29.86 in 10.0 mi NNE 4.6 mph - N/A   Clear
9:56 AM 1.4 °F -6.2 °F -13.0 °F 51% 29.86 in 10.0 mi NNE 3.5 mph - N/A   Clear
10:16 AM 1.4 °F -6.2 °F -13.0 °F 51% 29.87 in 10.0 mi NNE 3.5 mph - N/A   Clear
10:36 AM 1.4 °F -8.3 °F -13.0 °F 51% 29.87 in 10.0 mi NNE 4.6 mph - N/A   Clear
10:56 AM 1.4 °F -6.2 °F -11.2 °F 56% 29.87 in 10.0 mi NE 3.5 mph - N/A   Clear
11:16 AM 1.4 °F -9.9 °F - N/A% 29.88 in 10.0 mi NNE 5.8 mph - N/A   Clear
11:36 AM 1.4 °F -9.9 °F - N/A% 29.88 in 10.0 mi NNE 5.8 mph - N/A   Clear
11:56 AM 3.2 °F -6.2 °F -11.2 °F 51% 29.88 in 10.0 mi NNE 4.6 mph - N/A   Clear
12:16 PM 3.2 °F -7.8 °F -11.2 °F 51% 29.88 in 10.0 mi NNE 5.8 mph - N/A   Clear
12:36 PM 3.2 °F -9.1 °F -11.2 °F 51% 29.87 in 10.0 mi NE 6.9 mph - N/A   Clear
12:56 PM 3.2 °F -10.3 °F -11.2 °F 51% 29.87 in 10.0 mi NNE 8.1 mph - N/A   Clear
1:16 PM 3.2 °F -6.2 °F -11.2 °F 51% 29.88 in 10.0 mi NNE 4.6 mph - N/A   Clear
1:36 PM 3.2 °F -9.1 °F -11.2 °F 51% 29.88 in 10.0 mi NE 6.9 mph - N/A   Clear
1:56 PM 3.2 °F -9.1 °F -11.2 °F 51% 29.88 in 10.0 mi NE 6.9 mph - N/A   Clear
2:16 PM 3.2 °F -10.3 °F -11.2 °F 51% 29.88 in 10.0 mi NNE 8.1 mph - N/A   Clear
2:36 PM 3.2 °F -7.8 °F -11.2 °F 51% 29.88 in 10.0 mi NNE 5.8 mph - N/A   Clear
2:56 PM 3.2 °F -7.8 °F -11.2 °F 51% 29.89 in 10.0 mi NNE 5.8 mph - N/A   Clear
3:16 PM 1.4 °F -12.5 °F -11.2 °F 56% 29.89 in 10.0 mi NNE 8.1 mph - N/A   Clear
3:36 PM 1.4 °F -11.3 °F - N/A% 29.90 in 10.0 mi NE 6.9 mph - N/A   Clear
3:56 PM 1.4 °F -11.3 °F -11.2 °F 56% 29.90 in 10.0 mi NE 6.9 mph - N/A   Clear
4:16 PM 1.4 °F -9.9 °F -11.2 °F 56% 29.90 in 10.0 mi NE 5.8 mph - N/A   Clear
4:36 PM 1.4 °F -9.9 °F -11.2 °F 56% 29.91 in 10.0 mi NE 5.8 mph - N/A   Clear
4:56 PM 1.4 °F -12.5 °F -11.2 °F 56% 29.91 in 10.0 mi NE 8.1 mph - N/A   Clear
5:16 PM 1.4 °F -11.3 °F -13.0 °F 51% 29.91 in 10.0 mi NE 6.9 mph - N/A   Clear
5:36 PM -0.4 °F -14.7 °F -13.0 °F 55% 29.91 in 10.0 mi NE 8.1 mph - N/A   Clear
5:56 PM -0.4 °F -14.7 °F -13.0 °F 55% 29.92 in 10.0 mi NE 8.1 mph - N/A   Clear
6:16 PM -0.4 °F -12.0 °F -13.0 °F 55% 29.92 in 10.0 mi NNE 5.8 mph - N/A   Clear
6:36 PM -0.4 °F -12.0 °F -13.0 °F 55% 29.93 in 10.0 mi NE 5.8 mph - N/A   Clear
6:56 PM -0.4 °F -8.3 °F -13.0 °F 55% 29.93 in 10.0 mi NE 3.5 mph - N/A   Clear
7:16 PM -0.4 °F -12.0 °F -13.0 °F 55% 29.93 in 10.0 mi NNE 5.8 mph - N/A   Clear
7:36 PM -0.4 °F -13.4 °F -13.0 °F 55% 29.93 in 10.0 mi NNE 6.9 mph - N/A   Clear
7:56 PM -0.4 °F -12.0 °F -13.0 °F 55% 29.93 in 10.0 mi NNE 5.8 mph - N/A   Clear
8:16 PM -0.4 °F -10.4 °F -13.0 °F 55% 29.94 in 10.0 mi NNE 4.6 mph - N/A   Clear
8:36 PM -0.4 °F -12.0 °F -13.0 °F 55% 29.94 in 10.0 mi NNE 5.8 mph - N/A   Clear
8:56 PM -0.4 °F -10.4 °F -13.0 °F 55% 29.94 in 10.0 mi NNE 4.6 mph - N/A   Clear
9:16 PM -0.4 °F -13.4 °F -14.8 °F 51% 29.94 in 10.0 mi NNE 6.9 mph - N/A   Clear
9:36 PM -0.4 °F -12.0 °F -14.8 °F 51% 29.93 in 10.0 mi NNE 5.8 mph - N/A   Clear
9:56 PM -2.2 °F -10.4 °F -14.8 °F 55% 29.93 in 10.0 mi NNE 3.5 mph - N/A   Scattered Clouds
10:16 PM -0.4 °F -8.3 °F -13.0 °F 55% 29.93 in 10.0 mi NNE 3.5 mph - N/A   Overcast
10:36 PM -0.4 °F -10.4 °F -11.2 °F 60% 29.93 in 10.0 mi NNE 4.6 mph - N/A   Overcast
10:56 PM -0.4 °F - -13.0 °F 55% 29.93 in 10.0 mi Calm Calm - N/A   Overcast
11:16 PM -0.4 °F -8.3 °F -13.0 °F 55% 29.93 in 10.0 mi North 3.5 mph - N/A   Overcast
11:36 PM -0.4 °F -8.3 °F -13.0 °F 55% 29.92 in 10.0 mi North 3.5 mph - N/A   Overcast
11:56 PM -2.2 °F -10.4 °F -14.8 °F 55% 29.92 in 10.0 mi North 3.5 mph - N/A   Scattered Clouds